RYR395 LMML-LICC

Flight info

Callsign RYR395
Flight time N/A
Altitude 14000
Route GZO N982 NELDA
Aircraft B38M/M-SDE1FGHILORVWXY/HB1

Departure

Time 2026-04-28 20:38
Airport Malta International Airport (LMML)

Arrival

Time N/A
Airport Catania-Fontanarossa Airport (LICC)
Time Latitude Longitude Altitude Speed Heading
2026-04-28 20:17 35.84819 14.49514 306 ft 0 kts 360°
2026-04-28 20:29 35.84813 14.49514 306 ft 2 kts 360°
2026-04-28 20:29 35.84797 14.49514 306 ft 2 kts
2026-04-28 20:29 35.84782 14.49513 306 ft 2 kts 360°
2026-04-28 20:29 35.84767 14.49513 306 ft 2 kts 360°
2026-04-28 20:30 35.84752 14.49513 306 ft 2 kts 360°
2026-04-28 20:30 35.84742 14.49513 306 ft 2 kts 359°
2026-04-28 20:30 35.84727 14.49517 306 ft 2 kts 340°
2026-04-28 20:30 35.84713 14.49525 306 ft 2 kts 326°
2026-04-28 20:31 35.84704 14.49532 306 ft 0 kts 316°
2026-04-28 20:31 35.84700 14.49538 306 ft 0 kts 314°
2026-04-28 20:33 35.84705 14.49531 306 ft 2 kts 315°
2026-04-28 20:33 35.84728 14.49509 306 ft 5 kts 324°
2026-04-28 20:33 35.84772 14.49470 306 ft 9 kts 319°
2026-04-28 20:33 35.84829 14.49402 306 ft 13 kts 314°
2026-04-28 20:34 35.84897 14.49320 306 ft 12 kts 311°
2026-04-28 20:34 35.84936 14.49206 306 ft 9 kts 258°
2026-04-28 20:34 35.84917 14.49164 306 ft 7 kts 232°
2026-04-28 20:34 35.84904 14.49116 306 ft 4 kts 275°
2026-04-28 20:35 35.84924 14.49070 306 ft 8 kts 307°
2026-04-28 20:35 35.84966 14.49000 306 ft 11 kts 296°
2026-04-28 20:35 35.84996 14.48893 306 ft 12 kts 287°
2026-04-28 20:35 35.85004 14.48859 306 ft 0 kts 285°
2026-04-28 20:36 35.85006 14.48848 306 ft 4 kts 285°
2026-04-28 20:37 35.85022 14.48777 306 ft 12 kts 284°
2026-04-28 20:37 35.85005 14.48687 306 ft 9 kts 179°
2026-04-28 20:37 35.84924 14.48774 306 ft 37 kts 135°
2026-04-28 20:37 35.84566 14.49227 306 ft 106 kts 137°
2026-04-28 20:38 35.83890 14.50056 315 ft 160 kts 133°
2026-04-28 20:38 35.83073 14.51041 792 ft 169 kts 135°
2026-04-28 20:38 35.82021 14.51746 1467 ft 174 kts 163°
2026-04-28 20:38 35.80731 14.51736 1860 ft 194 kts 191°
2026-04-28 20:39 35.79467 14.50839 1939 ft 222 kts 224°
2026-04-28 20:39 35.78615 14.49050 2101 ft 248 kts 243°
2026-04-28 20:39 35.77741 14.47119 2525 ft 262 kts 236°
2026-04-28 20:39 35.76710 14.45142 3024 ft 273 kts 236°
2026-04-28 20:40 35.75649 14.43099 3645 ft 279 kts 237°
2026-04-28 20:40 35.74656 14.40972 4266 ft 284 kts 250°
2026-04-28 20:40 35.74394 14.38550 4923 ft 281 kts 279°
2026-04-28 20:40 35.74968 14.36252 5624 ft 275 kts 302°
2026-04-28 20:41 35.76176 14.34422 6275 ft 269 kts 325°
2026-04-28 20:41 35.77773 14.33227 6987 ft 263 kts 339°
2026-04-28 20:41 35.79514 14.32366 7651 ft 263 kts 342°
2026-04-28 20:41 35.81263 14.31580 8313 ft 263 kts 342°
2026-04-28 20:42 35.83001 14.30767 8950 ft 263 kts 340°
2026-04-28 20:42 35.84751 14.29918 9581 ft 264 kts 340°
2026-04-28 20:42 35.86482 14.29065 10177 ft 265 kts 339°
2026-04-28 20:42 35.88284 14.28173 10364 ft 282 kts 339°
2026-04-28 20:43 35.90187 14.27232 10449 ft 300 kts 338°
2026-04-28 20:43 35.92214 14.26228 10864 ft 307 kts 338°
2026-04-28 20:43 35.94237 14.25227 11356 ft 310 kts 338°
2026-04-28 20:43 35.96290 14.24210 11898 ft 313 kts 337°
2026-04-28 20:44 35.98369 14.23181 12451 ft 314 kts 337°
2026-04-28 20:44 36.00433 14.22181 12998 ft 316 kts 339°
2026-04-28 20:44 36.02623 14.21452 13529 ft 319 kts 347°
2026-04-28 20:44 36.04855 14.21160 14002 ft 323 kts 356°
2026-04-28 20:45 36.07165 14.21315 14043 ft 331 kts
2026-04-28 20:45 36.09505 14.21767 14046 ft 328 kts
2026-04-28 20:45 36.11788 14.22296 14050 ft 328 kts
2026-04-28 20:45 36.14082 14.22833 14049 ft 328 kts
2026-04-28 20:46 36.16390 14.23366 14047 ft 328 kts
2026-04-28 20:46 36.18709 14.23896 14047 ft 328 kts
2026-04-28 20:46 36.21031 14.24423 14048 ft 328 kts
2026-04-28 20:46 36.23352 14.24949 14047 ft 328 kts
2026-04-28 20:47 36.25641 14.25467 14047 ft 328 kts
2026-04-28 20:47 36.27976 14.25995 14047 ft 328 kts
2026-04-28 20:47 36.30273 14.26515 14047 ft 328 kts
2026-04-28 20:47 36.32568 14.27035 14047 ft 328 kts
2026-04-28 20:48 36.34860 14.27554 14050 ft 328 kts
2026-04-28 20:48 36.37193 14.28083 14054 ft 328 kts
2026-04-28 20:48 36.39460 14.28598 14058 ft 329 kts
2026-04-28 20:48 36.41772 14.29123 14061 ft 329 kts
2026-04-28 20:49 36.44053 14.29641 14065 ft 328 kts
2026-04-28 20:49 36.46372 14.30168 14069 ft 329 kts
2026-04-28 20:49 36.48628 14.30681 14073 ft 329 kts
2026-04-28 20:49 36.50913 14.31202 14074 ft 329 kts
2026-04-28 20:50 36.53217 14.31727 14074 ft 329 kts
2026-04-28 20:50 36.55495 14.32246 14074 ft 329 kts
2026-04-28 20:50 36.57766 14.32763 14074 ft 328 kts
2026-04-28 20:50 36.60041 14.33281 14074 ft 329 kts
2026-04-28 20:51 36.62349 14.33807 14074 ft 329 kts
2026-04-28 20:51 36.64643 14.34329 14074 ft 329 kts
2026-04-28 20:51 36.66925 14.34849 14074 ft 329 kts
2026-04-28 20:51 36.69206 14.35369 14074 ft 329 kts
2026-04-28 20:52 36.71517 14.35897 14074 ft 329 kts
2026-04-28 20:52 36.73813 14.36421 14074 ft 328 kts
2026-04-28 20:52 36.76107 14.36945 14074 ft 328 kts
2026-04-28 20:52 36.78384 14.37465 14074 ft 329 kts
2026-04-28 20:53 36.82974 14.38515 14074 ft 329 kts
2026-04-28 20:53 36.85280 14.39043 14074 ft 329 kts
2026-04-28 20:53 36.87574 14.39440 14074 ft 327 kts
2026-04-28 20:54 36.89880 14.39705 14074 ft 327 kts
2026-04-28 20:54 36.92205 14.39949 14074 ft 327 kts
2026-04-28 20:54 36.94519 14.40195 14074 ft 327 kts
2026-04-28 20:54 36.96822 14.40444 14074 ft 327 kts
2026-04-28 20:55 36.99151 14.40699 14074 ft 327 kts
2026-04-28 20:55 37.01436 14.40950 14074 ft 327 kts
2026-04-28 20:55 37.03753 14.41206 14074 ft 327 kts
2026-04-28 20:55 37.06077 14.41463 14074 ft 328 kts
2026-04-28 20:56 37.08347 14.41715 14018 ft 323 kts
2026-04-28 20:56 37.10614 14.41968 13645 ft 315 kts
2026-04-28 20:56 37.12774 14.42209 13230 ft 309 kts
2026-04-28 20:56 37.14952 14.42450 12796 ft 305 kts
2026-04-28 20:57 37.17095 14.42688 12366 ft 300 kts
2026-04-28 20:57 37.19194 14.42921 11942 ft 297 kts
2026-04-28 20:57 37.21269 14.43152 11525 ft 293 kts
2026-04-28 20:57 37.23323 14.43380 11112 ft 290 kts
2026-04-28 20:58 37.25354 14.43606 10701 ft 287 kts
2026-04-28 20:58 37.27403 14.43833 10324 ft 289 kts
2026-04-28 20:58 37.29402 14.44056 10179 ft 276 kts
2026-04-28 20:58 37.31281 14.44267 10099 ft 263 kts
2026-04-28 20:59 37.33100 14.44470 10002 ft 251 kts
2026-04-28 20:59 37.34881 14.44668 9634 ft 258 kts
2026-04-28 20:59 37.36695 14.44875 9292 ft 256 kts
2026-04-28 20:59 37.38446 14.45423 8960 ft 255 kts 21°
2026-04-28 21:00 37.39968 14.46578 8746 ft 250 kts 38°
2026-04-28 21:00 37.41119 14.48224 8520 ft 249 kts 54°
2026-04-28 21:00 37.41820 14.50266 8176 ft 253 kts 72°
2026-04-28 21:00 37.42114 14.52515 7872 ft 253 kts 81°
2026-04-28 21:01 37.42259 14.54723 7594 ft 246 kts 82°
2026-04-28 21:01 37.42402 14.56867 7342 ft 235 kts 81°
2026-04-28 21:01 37.42562 14.58891 7101 ft 226 kts 80°
2026-04-28 21:01 37.42733 14.60867 6817 ft 223 kts 80°
2026-04-28 21:02 37.42791 14.61521 6709 ft 224 kts 80°
2026-04-28 21:03 37.44147 14.77124 4578 ft 228 kts 82°
2026-04-28 21:04 37.44321 14.79132 4262 ft 229 kts 83°
2026-04-28 21:04 37.44499 14.81175 3922 ft 230 kts 83°
2026-04-28 21:04 37.44558 14.81861 3812 ft 230 kts 83°
2026-04-28 21:05 37.44616 14.82531 3700 ft 230 kts 83°